Weather reports worldwide

Advertisment
Alghero, Italy (16520): temperature & dewpoint: 18.01.2019 00:00:00 - 24.01.2019 00:00:00 (CET)Alghero, Italy (16520): wind speed: 18.01.2019 00:00:00 - 24.01.2019 00:00:00 (CET)Alghero, Italy (16520): wind direction: 18.01.2019 00:00:00 - 24.01.2019 00:00:00 (CET)Alghero, Italy (16520): reduced air pressure: 18.01.2019 00:00:00 - 24.01.2019 00:00:00 (CET)Alghero, Italy (16520): visibility: 18.01.2019 00:00:00 - 24.01.2019 00:00:00 (CET)Alghero, Italy (16520): precipitation: 18.01.2019 00:00:00 - 24.01.2019 00:00:00 (CET)
Date & Time tt [°C] td [°C] ff [km/h] ff [kn] dd ppp [hPa] vv [km] rr [mm]
24.01.2019 00:00:00 6,0 4,0 9 5 ESE - 10 -
23.01.2019 23:00:00 6,0 5,0 9 5 SE - 10 -
23.01.2019 22:00:00 6,0 4,6 9 5 - 989,6 7 0,0
23.01.2019 21:00:00 8,0 6,0 9 5 N - 10 -
23.01.2019 20:00:00 7,0 5,0 22 12 SSW - 10 -
23.01.2019 19:00:00 7,5 6,0 16 9 SW 991,0 10 -
23.01.2019 18:00:00 9,0 6,0 24 13 SW - 9 -
23.01.2019 17:00:00 11,0 3,0 29 16 SW - 10 -
23.01.2019 16:00:00 11,1 3,7 22 12 SW 993,0 10 0,0
23.01.2019 15:00:00 11,0 5,0 18 10 SW - 10 -
23.01.2019 14:00:00 9,0 5,0 21 11 SW - 6 -
23.01.2019 13:00:00 10,0 4,0 24 13 W 996,9 10 -
23.01.2019 12:00:00 12,0 3,0 15 8 WNW - 10 -
23.01.2019 11:00:00 11,0 3,0 15 8 W - 10 -
23.01.2019 10:00:00 10,9 3,2 16 9 W 998,5 10 0,0
23.01.2019 09:00:00 10,0 3,0 13 7 W - 10 -
23.01.2019 08:00:00 9,0 3,0 16 9 W - 10 -
23.01.2019 07:00:00 8,9 3,0 13 7 WSW 999,3 10 -
23.01.2019 06:00:00 8,0 5,0 9 5 SW - 10 -
23.01.2019 05:00:00 6,0 4,0 4 2 S - 9 -
23.01.2019 04:00:00 6,7 3,9 4 2 - 1001,9 10 0,0
23.01.2019 03:00:00 5,0 3,0 9 5 SE - 10 -
23.01.2019 02:00:00 9,0 3,0 13 7 NNW - 10 -
23.01.2019 01:00:00 6,3 0,5 4 2 - 1003,4 10 -
23.01.2019 00:00:00 9,0 1,0 8 4 NW - 10 -
22.01.2019 23:00:00 9,0 0,0 15 8 WNW - 10 -
22.01.2019 22:00:00 8,9 0,9 15 8 WNW 1004,9 10 0,0
22.01.2019 21:00:00 9,0 2,0 9 5 W - 10 -
22.01.2019 20:00:00 9,0 2,0 16 9 W - 10 -
22.01.2019 19:00:00 8,0 0,9 13 7 W 1005,7 10 -
22.01.2019 18:00:00 9,0 2,0 11 6 W - 10 -
22.01.2019 17:00:00 9,0 0,0 13 7 W - 10 -
22.01.2019 16:00:00 9,4 4,0 13 7 WNW 1006,8 10 0,0
22.01.2019 15:00:00 10,0 3,0 18 10 WNW - 10 -
22.01.2019 14:00:00 11,0 4,0 22 12 WNW - 10 -
22.01.2019 13:00:00 10,1 2,4 15 8 W 1008,5 10 -
22.01.2019 12:00:00 11,0 4,0 15 8 WNW - 10 -
22.01.2019 11:00:00 11,0 5,0 21 11 W - 10 -
22.01.2019 10:00:00 10,6 5,1 11 6 WNW 1009,5 10 0,0
22.01.2019 09:00:00 7,0 4,0 5 3 W - 10 -
22.01.2019 08:00:00 8,0 5,0 8 4 WNW - 10 -
22.01.2019 07:00:00 5,1 3,5 4 2 - 1009,5 10 -
22.01.2019 06:00:00 7,0 3,0 5 3 - - 10 -
22.01.2019 05:00:00 8,0 5,0 5 3 W - 10 -
22.01.2019 04:00:00 8,6 5,5 5 3 W 1010,2 10 0,0
22.01.2019 03:00:00 9,0 7,0 4 2 - - 10 -
22.01.2019 02:00:00 5,0 5,0 4 2 ESE - 10 -
22.01.2019 01:00:00 5,4 5,0 8 4 NNE 1010,6 10 -
22.01.2019 00:00:00 6,0 6,0 4 2 NNW - 10 -
21.01.2019 23:00:00 7,0 6,0 5 3 W - 10 -
21.01.2019 22:00:00 7,7 6,7 2 1 - 1010,8 10 0,0
21.01.2019 21:00:00 - - - - - - - -
21.01.2019 20:00:00 8,0 6,0 8 4 NNE - 10 -
21.01.2019 19:00:00 8,9 6,2 8 4 NNE 1010,3 10 -
21.01.2019 18:00:00 9,0 7,0 13 7 NNE - 10 -
21.01.2019 17:00:00 9,0 7,0 16 9 NNE - 10 -
21.01.2019 16:00:00 9,2 7,3 16 9 NNE 1009,7 10 0,0
21.01.2019 15:00:00 10,0 8,0 16 9 NNE - 10 -
21.01.2019 14:00:00 9,0 7,0 16 9 NNE - 10 -
21.01.2019 13:00:00 9,2 7,8 18 10 NE 1009,8 10 -
21.01.2019 12:00:00 9,0 8,0 21 11 NE - 10 -
21.01.2019 11:00:00 8,0 7,0 15 8 NE - 10 -
21.01.2019 10:00:00 8,0 6,8 11 6 NE 1010,2 10 0,0
21.01.2019 09:00:00 8,0 6,0 13 7 NE - 10 -
21.01.2019 08:00:00 8,0 7,0 8 4 NNE - 10 -
21.01.2019 07:00:00 7,9 6,5 11 6 NE 1009,8 10 -
21.01.2019 06:00:00 8,0 6,0 11 6 NE - 10 -
21.01.2019 05:00:00 8,0 6,0 5 3 ENE - 10 -
21.01.2019 04:00:00 7,5 6,2 9 5 NNE 1010,4 30 0,0
21.01.2019 03:00:00 8,0 6,0 8 4 NNE - 10 -
21.01.2019 02:00:00 - - - - - - - -
21.01.2019 01:00:00 8,3 5,4 8 4 N 1011,1 10 -
21.01.2019 00:00:00 8,0 5,0 8 4 N - 10 -
20.01.2019 23:00:00 8,0 5,0 5 3 N - 10 -
20.01.2019 22:00:00 7,5 5,2 5 3 NNE 1011,1 10 0,0
20.01.2019 21:00:00 8,0 5,0 9 5 NNE - 10 -
20.01.2019 20:00:00 7,0 5,0 2 1 - - 10 -
20.01.2019 19:00:00 8,0 5,5 2 1 - 1011,2 10 -
20.01.2019 18:00:00 9,0 5,0 4 2 - - 10 -
20.01.2019 17:00:00 11,0 5,0 2 1 - - 10 -
20.01.2019 16:00:00 12,6 4,5 4 2 - 1010,7 10 0,0
20.01.2019 15:00:00 13,0 4,0 4 2 - - 10 -
20.01.2019 14:00:00 13,0 4,0 4 2 - - 10 -
20.01.2019 13:00:00 12,2 4,3 4 2 - 1011,8 10 -
20.01.2019 12:00:00 12,0 6,0 5 3 E - 10 -
20.01.2019 11:00:00 10,0 8,0 4 2 - - 10 -
20.01.2019 10:00:00 7,0 6,5 2 1 - 1012,9 10 0,0
20.01.2019 09:00:00 3,0 3,0 4 2 - - 10 -
20.01.2019 08:00:00 3,0 2,0 4 2 N - 10 -
20.01.2019 07:00:00 2,6 2,1 2 1 - 1012,4 7 -
20.01.2019 06:00:00 4,0 4,0 5 3 NNE - 10 -
20.01.2019 05:00:00 4,0 4,0 4 2 - - 10 -
20.01.2019 04:00:00 4,5 4,0 2 1 N 1012,8 9 0,0
20.01.2019 03:00:00 6,0 5,0 2 1 - - 10 -
20.01.2019 02:00:00 7,0 6,0 2 1 - - 10 -
20.01.2019 01:00:00 6,5 5,9 2 1 - 1013,4 10 -
20.01.2019 00:00:00 6,0 5,0 2 1 - - 7 -
19.01.2019 23:00:00 8,0 7,0 2 1 E - 10 -
19.01.2019 22:00:00 7,8 7,0 4 2 - 1013,8 10 0,0
19.01.2019 21:00:00 8,0 7,0 2 1 S - 10 -
19.01.2019 20:00:00 8,0 7,0 2 1 - - 10 -
19.01.2019 19:00:00 8,4 7,3 4 2 S 1013,5 10 -
19.01.2019 18:00:00 9,0 8,0 5 3 S - 10 -
19.01.2019 17:00:00 10,0 8,0 8 4 SSE - 10 -
19.01.2019 16:00:00 10,2 7,8 2 1 - 1013,6 10 0,0
19.01.2019 15:00:00 10,0 8,0 2 1 - - 10 -
19.01.2019 14:00:00 11,0 8,0 4 2 S - 10 -
19.01.2019 13:00:00 10,7 8,1 5 3 SSE 1014,7 10 -
19.01.2019 12:00:00 10,0 8,0 8 4 WSW - 10 -
19.01.2019 11:00:00 10,0 8,0 4 2 S - 10 -
19.01.2019 10:00:00 8,8 7,9 4 2 - 1015,2 10 0,0
19.01.2019 09:00:00 6,0 5,0 2 1 - - 10 -
19.01.2019 08:00:00 6,0 5,0 4 2 - - 10 -
19.01.2019 07:00:00 5,1 4,1 5 3 SSE 1014,3 10 -
19.01.2019 06:00:00 3,0 2,0 2 1 - - 10 -
19.01.2019 05:00:00 3,0 2,0 4 2 - - 10 -
19.01.2019 04:00:00 1,9 0,5 4 2 - 1015,3 10 0,0
19.01.2019 03:00:00 - - - - - - - -
19.01.2019 02:00:00 - - - - - - - -
19.01.2019 01:00:00 5,0 2,5 5 3 SE 1015,7 10 -
19.01.2019 00:00:00 5,0 3,0 4 2 - - 10 -
18.01.2019 23:00:00 5,0 3,0 5 3 ESE - 10 -
18.01.2019 22:00:00 4,8 2,3 5 3 SE 1015,8 10 0,0
18.01.2019 21:00:00 5,0 2,0 5 3 ESE - 10 -
18.01.2019 20:00:00 6,0 1,0 2 1 - - 10 -
18.01.2019 19:00:00 7,8 0,8 5 3 WNW 1015,6 10 -
18.01.2019 18:00:00 9,0 1,0 8 4 WNW - 10 -
18.01.2019 17:00:00 11,0 2,0 13 7 WNW - 10 -
18.01.2019 16:00:00 12,0 2,4 13 7 WNW 1015,1 10 0,0
18.01.2019 15:00:00 12,0 2,0 13 7 WNW - 10 -
18.01.2019 14:00:00 12,0 3,0 13 7 WNW - 10 -
18.01.2019 13:00:00 12,6 3,0 15 8 WNW 1015,4 10 -
18.01.2019 12:00:00 12,0 4,0 16 9 WNW - 10 -
18.01.2019 11:00:00 11,0 5,0 11 6 WNW - 10 -
18.01.2019 10:00:00 10,4 8,1 2 1 - 1015,6 10 0,0
18.01.2019 09:00:00 6,0 5,0 2 1 - - 10 -
18.01.2019 08:00:00 5,0 5,0 2 1 - - 7 -
18.01.2019 07:00:00 5,4 4,8 0 0 N 1014,2 5 -
18.01.2019 06:00:00 7,0 7,0 2 1 - - 5 -
18.01.2019 05:00:00 10,0 9,0 4 2 - - 10 -
18.01.2019 04:00:00 9,2 8,4 5 3 E 1014,5 10 0,0
18.01.2019 03:00:00 10,0 9,0 4 2 S - 10 -
18.01.2019 02:00:00 10,0 9,0 8 4 S - 9 -
18.01.2019 01:00:00 10,6 9,2 5 3 WSW 1015,0 9 -
18.01.2019 00:00:00 11,0 8,0 9 5 SW - 10 -

tt = temperature
td = dewpoint
ff = wind speed
dd = wind direction
ppp = reduced air pressure
vv = visibility
rr = precipitation

Next stations